Time,TemperatureF,DewpointF,PressureIn,WindDirection,WindDirectionDegrees,WindSpeedMPH,WindSpeedGustMPH,Humidity,HourlyPrecipIn,Conditions,Clouds,dailyrainin,SoftwareType,DateUTC
2013-03-01 00:00:00,38.8,32.2,29.60,WNW,284,0.0,3.0,77,0.00,,,0.00,WeatherCatV1.13B119,2013-03-01 05:00:00,
2013-03-01 00:05:00,38.7,32.1,29.60,WNW,284,0.0,1.0,77,0.00,,,0.00,WeatherCatV1.13B119,2013-03-01 05:05:00,
2013-03-01 00:10:00,38.6,32.3,29.60,WSW,237,1.0,5.0,78,0.00,,,0.00,WeatherCatV1.13B119,2013-03-01 05:10:00,
2013-03-01 00:15:00,38.5,32.2,29.60,West,267,0.0,2.0,78,0.00,,,0.00,WeatherCatV1.13B119,2013-03-01 05:15:00,
2013-03-01 00:20:00,38.4,32.2,29.61,West,267,2.0,2.0,78,0.00,,,0.00,WeatherCatV1.13B119,2013-03-01 05:20:00,
2013-03-01 00:25:00,38.3,32.1,29.61,North,354,1.0,3.0,78,0.00,,,0.00,WeatherCatV1.13B119,2013-03-01 05:25:00,
2013-03-01 00:30:00,38.2,32.3,29.61,NNW,338,1.0,3.0,79,0.00,,,0.00,WeatherCatV1.13B119,2013-03-01 05:30:00,
2013-03-01 00:35:00,38.1,32.2,29.61,NNW,338,1.0,1.0,79,0.00,,,0.00,WeatherCatV1.13B119,2013-03-01 05:35:00,
2013-03-01 00:40:00,38.0,32.1,29.61,NNW,338,0.0,0.0,79,0.00,,,0.00,WeatherCatV1.13B119,2013-03-01 05:40:00,
2013-03-01 00:45:00,37.9,32.0,29.61,NW,306,1.0,3.0,79,0.00,,,0.00,WeatherCatV1.13B119,2013-03-01 05:45:00,
2013-03-01 00:50:00,37.7,31.8,29.61,NW,309,0.0,1.0,79,0.00,,,0.00,WeatherCatV1.13B119,2013-03-01 05:50:00,
2013-03-01 00:55:00,37.6,32.0,29.61,NW,321,0.0,1.0,80,0.00,,,0.00,WeatherCatV1.13B119,2013-03-01 05:55:00,
2013-03-01 01:00:00,37.4,31.8,29.61,NW,321,0.0,1.0,80,0.00,,,0.00,WeatherCatV1.13B119,2013-03-01 06:00:00,
2013-03-01 01:05:00,37.3,31.7,29.61,NW,321,0.0,0.0,80,0.00,,,0.00,WeatherCatV1.13B119,2013-03-01 06:05:00,
2013-03-01 01:10:00,37.1,31.8,29.61,NW,321,0.0,0.0,81,0.00,,,0.00,WeatherCatV1.13B119,2013-03-01 06:10:00,
2013-03-01 01:15:00,37.0,31.7,29.61,NW,321,0.0,0.0,81,0.00,,,0.00,WeatherCatV1.13B119,2013-03-01 06:15:00,
2013-03-01 01:20:00,36.8,31.5,29.61,NW,321,0.0,0.0,81,0.00,,,0.00,WeatherCatV1.13B119,2013-03-01 06:20:00,
2013-03-01 01:25:00,36.7,31.7,29.61,NW,321,0.0,0.0,82,0.00,,,0.00,WeatherCatV1.13B119,2013-03-01 06:25:00,
2013-03-01 01:30:00,36.5,31.5,29.61,NW,321,0.0,0.0,82,0.00,,,0.00,WeatherCatV1.13B119,2013-03-01 06:30:00,
2013-03-01 01:35:00,36.4,31.4,29.61,NW,321,0.0,0.0,82,0.00,,,0.00,WeatherCatV1.13B119,2013-03-01 06:35:00,
2013-03-01 01:40:00,36.2,31.2,29.61,NW,321,0.0,0.0,82,0.00,,,0.00,WeatherCatV1.13B119,2013-03-01 06:40:00,
2013-03-01 01:45:00,36.1,31.4,29.61,NW,321,0.0,0.0,83,0.00,,,0.00,WeatherCatV1.13B119,2013-03-01 06:45:00,
2013-03-01 01:50:00,35.9,31.2,29.61,NW,321,0.0,0.0,83,0.00,,,0.00,WeatherCatV1.13B119,2013-03-01 06:50:00,
2013-03-01 01:55:00,35.7,31.4,29.61,NW,321,0.0,0.0,84,0.00,,,0.00,WeatherCatV1.13B119,2013-03-01 06:55:00,
2013-03-01 02:00:00,35.5,31.2,29.61,NW,321,0.0,0.0,84,0.00,,,0.00,WeatherCatV1.13B119,2013-03-01 07:00:00,
2013-03-01 02:05:00,35.3,31.0,29.61,NW,321,0.0,1.0,84,0.00,,,0.00,WeatherCatV1.13B119,2013-03-01 07:05:00,
2013-03-01 02:10:00,35.2,31.2,29.61,NW,321,0.0,1.0,85,0.00,,,0.00,WeatherCatV1.13B119,2013-03-01 07:10:00,
2013-03-01 02:15:00,35.2,31.2,29.61,NW,321,0.0,0.0,85,0.00,,,0.00,WeatherCatV1.13B119,2013-03-01 07:15:00,
2013-03-01 02:20:00,35.1,31.1,29.61,NW,321,1.0,2.0,85,0.00,,,0.00,WeatherCatV1.13B119,2013-03-01 07:20:00,
2013-03-01 02:25:00,35.0,31.0,29.61,NW,321,0.0,1.0,85,0.00,,,0.00,WeatherCatV1.13B119,2013-03-01 07:25:00,
2013-03-01 02:30:00,34.9,31.1,29.61,NW,321,0.0,1.0,86,0.00,,,0.00,WeatherCatV1.13B119,2013-03-01 07:30:00,
2013-03-01 02:35:00,34.9,31.1,29.62,NW,321,0.0,0.0,86,0.00,,,0.00,WeatherCatV1.13B119,2013-03-01 07:35:00,
2013-03-01 02:40:00,34.9,30.9,29.61,NW,321,0.0,0.0,85,0.00,,,0.00,WeatherCatV1.13B119,2013-03-01 07:40:00,
2013-03-01 02:45:00,34.8,30.8,29.61,NW,321,0.0,1.0,85,0.00,,,0.00,WeatherCatV1.13B119,2013-03-01 07:45:00,
2013-03-01 02:50:00,34.8,30.8,29.62,NW,321,0.0,0.0,85,0.00,,,0.00,WeatherCatV1.13B119,2013-03-01 07:50:00,
2013-03-01 02:55:00,34.7,30.7,29.62,NW,321,0.0,0.0,85,0.00,,,0.00,WeatherCatV1.13B119,2013-03-01 07:55:00,
2013-03-01 03:00:00,34.6,30.6,29.62,NW,321,0.0,0.0,85,0.00,,,0.00,WeatherCatV1.13B119,2013-03-01 08:00:00,
2013-03-01 03:05:00,34.4,30.4,29.62,NW,321,0.0,0.0,85,0.00,,,0.00,WeatherCatV1.13B119,2013-03-01 08:05:00,
2013-03-01 03:10:00,34.3,30.6,29.62,NW,321,0.0,0.0,86,0.00,,,0.00,WeatherCatV1.13B119,2013-03-01 08:10:00,
2013-03-01 03:15:00,34.2,30.5,29.62,NW,321,0.0,0.0,86,0.00,,,0.00,WeatherCatV1.13B119,2013-03-01 08:15:00,
2013-03-01 03:20:00,34.1,30.4,29.62,NW,321,0.0,0.0,86,0.00,,,0.00,WeatherCatV1.13B119,2013-03-01 08:20:00,
2013-03-01 03:25:00,34.0,30.5,29.62,NW,321,0.0,1.0,87,0.00,,,0.00,WeatherCatV1.13B119,2013-03-01 08:25:00,
2013-03-01 03:30:00,34.0,30.5,29.62,NW,321,0.0,0.0,87,0.00,,,0.00,WeatherCatV1.13B119,2013-03-01 08:30:00,
2013-03-01 03:35:00,34.0,30.5,29.63,NW,321,0.0,0.0,87,0.00,,,0.00,WeatherCatV1.13B119,2013-03-01 08:35:00,
2013-03-01 03:40:00,34.0,30.5,29.63,NW,321,0.0,0.0,87,0.00,,,0.00,WeatherCatV1.13B119,2013-03-01 08:40:00,
2013-03-01 03:45:00,34.0,30.5,29.63,NW,321,0.0,0.0,87,0.00,,,0.00,WeatherCatV1.13B119,2013-03-01 08:45:00,
2013-03-01 03:50:00,34.0,30.3,29.63,NW,321,0.0,0.0,86,0.00,,,0.00,WeatherCatV1.13B119,2013-03-01 08:50:00,
2013-03-01 03:55:00,33.9,30.4,29.63,NW,321,1.0,1.0,87,0.00,,,0.00,WeatherCatV1.13B119,2013-03-01 08:55:00,
2013-03-01 04:00:00,34.0,30.3,29.63,NW,321,0.0,0.0,86,0.00,,,0.00,WeatherCatV1.13B119,2013-03-01 09:00:00,
2013-03-01 04:05:00,34.0,30.3,29.63,NW,321,0.0,1.0,86,0.00,,,0.00,WeatherCatV1.13B119,2013-03-01 09:05:00,
2013-03-01 04:10:00,34.1,30.4,29.63,NW,321,0.0,1.0,86,0.00,,,0.00,WeatherCatV1.13B119,2013-03-01 09:10:00,
2013-03-01 04:15:00,34.2,30.2,29.63,NW,321,0.0,0.0,85,0.00,,,0.00,WeatherCatV1.13B119,2013-03-01 09:15:00,
2013-03-01 04:20:00,34.3,30.3,29.64,NW,323,0.0,1.0,85,0.00,,,0.00,WeatherCatV1.13B119,2013-03-01 09:20:00,
2013-03-01 04:25:00,34.4,30.4,29.64,NW,323,0.0,1.0,85,0.00,,,0.00,WeatherCatV1.13B119,2013-03-01 09:25:00,
2013-03-01 04:30:00,34.4,30.1,29.64,NW,323,0.0,0.0,84,0.00,,,0.00,WeatherCatV1.13B119,2013-03-01 09:30:00,
2013-03-01 04:35:00,34.4,30.1,29.64,NW,323,1.0,2.0,84,0.00,,,0.00,WeatherCatV1.13B119,2013-03-01 09:35:00,
2013-03-01 04:40:00,34.4,30.1,29.64,NW,323,0.0,0.0,84,0.00,,,0.00,WeatherCatV1.13B119,2013-03-01 09:40:00,
2013-03-01 04:45:00,34.5,30.2,29.64,NW,323,0.0,1.0,84,0.00,,,0.00,WeatherCatV1.13B119,2013-03-01 09:45:00,
2013-03-01 04:50:00,34.5,30.2,29.64,NW,323,0.0,0.0,84,0.00,,,0.00,WeatherCatV1.13B119,2013-03-01 09:50:00,
2013-03-01 04:55:00,34.3,30.0,29.64,NW,323,0.0,1.0,84,0.00,,,0.00,WeatherCatV1.13B119,2013-03-01 09:55:00,
2013-03-01 05:00:00,34.2,29.9,29.64,NW,323,0.0,0.0,84,0.00,,,0.00,WeatherCatV1.13B119,2013-03-01 10:00:00,
2013-03-01 05:05:00,34.1,29.8,29.64,NW,323,0.0,1.0,84,0.00,,,0.00,WeatherCatV1.13B119,2013-03-01 10:05:00,
2013-03-01 05:10:00,33.9,29.6,29.64,NW,323,0.0,0.0,84,0.00,,,0.00,WeatherCatV1.13B119,2013-03-01 10:10:00,
2013-03-01 05:15:00,33.8,29.8,29.64,NW,323,0.0,1.0,85,0.00,,,0.00,WeatherCatV1.13B119,2013-03-01 10:15:00,
2013-03-01 05:20:00,33.6,29.6,29.65,NW,323,0.0,0.0,85,0.00,,,0.00,WeatherCatV1.13B119,2013-03-01 10:20:00,
2013-03-01 05:25:00,33.4,29.7,29.65,NW,323,0.0,0.0,86,0.00,,,0.00,WeatherCatV1.13B119,2013-03-01 10:25:00,
2013-03-01 05:30:00,33.2,29.5,29.65,NW,323,0.0,0.0,86,0.00,,,0.00,WeatherCatV1.13B119,2013-03-01 10:30:00,
2013-03-01 05:35:00,33.1,29.4,29.65,NW,323,0.0,0.0,86,0.00,,,0.00,WeatherCatV1.13B119,2013-03-01 10:35:00,
2013-03-01 05:40:00,32.9,29.2,29.65,NW,323,0.0,0.0,86,0.00,,,0.00,WeatherCatV1.13B119,2013-03-01 10:40:00,
2013-03-01 05:45:00,32.8,29.4,29.65,NW,323,0.0,0.0,87,0.00,,,0.00,WeatherCatV1.13B119,2013-03-01 10:45:00,
2013-03-01 05:50:00,32.6,29.2,29.65,NW,323,0.0,0.0,87,0.00,,,0.00,WeatherCatV1.13B119,2013-03-01 10:50:00,
2013-03-01 05:55:00,32.6,29.4,29.65,NW,323,0.0,0.0,88,0.00,,,0.00,WeatherCatV1.13B119,2013-03-01 10:55:00,
2013-03-01 06:00:00,32.5,29.3,29.65,NW,323,0.0,0.0,88,0.00,,,0.00,WeatherCatV1.13B119,2013-03-01 11:00:00,
2013-03-01 06:05:00,32.4,29.2,29.65,NW,323,1.0,1.0,88,0.00,,,0.00,WeatherCatV1.13B119,2013-03-01 11:05:00,
2013-03-01 06:10:00,32.3,29.4,29.65,NW,323,0.0,0.0,89,0.00,,,0.00,WeatherCatV1.13B119,2013-03-01 11:10:00,
2013-03-01 06:15:00,32.4,29.5,29.65,NW,323,0.0,0.0,89,0.00,,,0.00,WeatherCatV1.13B119,2013-03-01 11:15:00,
2013-03-01 06:20:00,32.3,29.4,29.66,NW,323,0.0,0.0,89,0.00,,,0.00,WeatherCatV1.13B119,2013-03-01 11:20:00,
2013-03-01 06:25:00,32.2,29.3,29.66,NW,323,0.0,0.0,89,0.00,,,0.00,WeatherCatV1.13B119,2013-03-01 11:25:00,
2013-03-01 06:30:00,32.1,29.2,29.66,NW,323,0.0,0.0,89,0.00,,,0.00,WeatherCatV1.13B119,2013-03-01 11:30:00,
2013-03-01 06:35:00,31.9,29.0,29.66,NW,323,0.0,0.0,89,0.00,,,0.00,WeatherCatV1.13B119,2013-03-01 11:35:00,
2013-03-01 06:40:00,31.7,28.8,29.66,NW,323,0.0,0.0,89,0.00,,,0.00,WeatherCatV1.13B119,2013-03-01 11:40:00,
2013-03-01 06:45:00,31.6,28.7,29.65,NW,323,0.0,0.0,89,0.00,,,0.00,WeatherCatV1.13B119,2013-03-01 11:45:00,
2013-03-01 06:50:00,31.5,28.9,29.65,NW,323,0.0,0.0,90,0.00,,,0.00,WeatherCatV1.13B119,2013-03-01 11:50:00,
2013-03-01 06:55:00,31.5,28.9,29.65,NW,323,0.0,0.0,90,0.00,,,0.00,WeatherCatV1.13B119,2013-03-01 11:55:00,
2013-03-01 07:00:00,31.5,29.2,29.65,NW,323,0.0,0.0,91,0.00,,,0.00,WeatherCatV1.13B119,2013-03-01 12:00:00,
2013-03-01 07:05:00,31.5,29.2,29.65,NW,323,0.0,0.0,91,0.00,,,0.00,WeatherCatV1.13B119,2013-03-01 12:05:00,
2013-03-01 07:10:00,31.6,29.3,29.65,NW,323,0.0,0.0,91,0.00,,,0.00,WeatherCatV1.13B119,2013-03-01 12:10:00,
2013-03-01 07:15:00,31.7,29.6,29.66,NW,323,0.0,0.0,92,0.00,,,0.00,WeatherCatV1.13B119,2013-03-01 12:15:00,
2013-03-01 07:20:00,32.0,29.9,29.66,NW,323,0.0,0.0,92,0.00,,,0.00,WeatherCatV1.13B119,2013-03-01 12:20:00,
2013-03-01 07:25:00,32.4,30.3,29.66,NW,323,0.0,0.0,92,0.00,,,0.00,WeatherCatV1.13B119,2013-03-01 12:25:00,
2013-03-01 07:30:00,32.8,30.5,29.66,NW,323,0.0,0.0,91,0.00,,,0.00,WeatherCatV1.13B119,2013-03-01 12:30:00,
2013-03-01 07:35:00,33.1,30.8,29.67,NW,323,0.0,0.0,91,0.00,,,0.00,WeatherCatV1.13B119,2013-03-01 12:35:00,
2013-03-01 07:40:00,33.9,31.3,29.67,NW,323,0.0,1.0,90,0.00,,,0.00,WeatherCatV1.13B119,2013-03-01 12:40:00,
2013-03-01 07:45:00,34.6,31.7,29.67,NW,323,1.0,2.0,89,0.00,,,0.00,WeatherCatV1.13B119,2013-03-01 12:45:00,
2013-03-01 07:50:00,35.3,31.8,29.67,NW,323,2.0,2.0,87,0.00,,,0.00,WeatherCatV1.13B119,2013-03-01 12:50:00,
2013-03-01 07:55:00,36.0,31.9,29.67,NW,323,0.0,1.0,85,0.00,,,0.00,WeatherCatV1.13B119,2013-03-01 12:55:00,
2013-03-01 08:00:00,36.5,32.1,29.67,NW,323,1.0,2.0,84,0.00,,,0.00,WeatherCatV1.13B119,2013-03-01 13:00:00,
2013-03-01 08:05:00,37.1,32.1,29.67,NW,323,0.0,3.0,82,0.00,,,0.00,WeatherCatV1.13B119,2013-03-01 13:05:00,
2013-03-01 08:10:00,37.7,32.4,29.67,North,352,0.0,2.0,81,0.00,,,0.00,WeatherCatV1.13B119,2013-03-01 13:10:00,
2013-03-01 08:15:00,38.2,32.6,29.68,NW,322,1.0,2.0,80,0.00,,,0.00,WeatherCatV1.13B119,2013-03-01 13:15:00,
2013-03-01 08:20:00,38.9,32.6,29.68,NNE,22,1.0,3.0,78,0.00,,,0.00,WeatherCatV1.13B119,2013-03-01 13:20:00,
2013-03-01 08:25:00,39.5,32.6,29.68,NNW,329,0.0,1.0,76,0.00,,,0.00,WeatherCatV1.13B119,2013-03-01 13:25:00,
2013-03-01 08:30:00,40.1,32.8,29.68,NNW,344,2.0,3.0,75,0.00,,,0.00,WeatherCatV1.13B119,2013-03-01 13:30:00,
2013-03-01 08:35:00,40.5,32.5,29.68,North,356,1.0,3.0,73,0.00,,,0.00,WeatherCatV1.13B119,2013-03-01 13:35:00,
2013-03-01 08:40:00,40.8,32.5,29.68,NNW,331,3.0,6.0,72,0.00,,,0.00,WeatherCatV1.13B119,2013-03-01 13:40:00,
2013-03-01 08:45:00,41.0,32.3,29.68,NNE,25,3.0,3.0,71,0.00,,,0.00,WeatherCatV1.13B119,2013-03-01 13:45:00,
2013-03-01 08:50:00,41.3,32.3,29.68,North,353,3.0,5.0,70,0.00,,,0.00,WeatherCatV1.13B119,2013-03-01 13:50:00,
2013-03-01 08:55:00,41.4,32.0,29.68,North,350,1.0,5.0,69,0.00,,,0.00,WeatherCatV1.13B119,2013-03-01 13:55:00,
2013-03-01 09:00:00,41.3,31.9,29.68,North,354,1.0,4.0,69,0.00,,,0.00,WeatherCatV1.13B119,2013-03-01 14:00:00,
2013-03-01 09:05:00,41.3,31.9,29.68,NW,304,2.0,3.0,69,0.00,,,0.00,WeatherCatV1.13B119,2013-03-01 14:05:00,
2013-03-01 09:10:00,41.3,31.9,29.68,NNE,19,1.0,5.0,69,0.00,,,0.00,WeatherCatV1.13B119,2013-03-01 14:10:00,
2013-03-01 09:15:00,41.6,32.2,29.68,NNW,339,2.0,4.0,69,0.00,,,0.00,WeatherCatV1.13B119,2013-03-01 14:15:00,
2013-03-01 09:20:00,42.0,32.6,29.68,NNW,346,2.0,2.0,69,0.00,,,0.00,WeatherCatV1.13B119,2013-03-01 14:20:00,
2013-03-01 09:25:00,42.5,32.3,29.68,North,352,2.0,7.0,67,0.00,,,0.00,WeatherCatV1.13B119,2013-03-01 14:25:00,
2013-03-01 09:30:00,42.7,32.5,29.68,NNW,346,2.0,4.0,67,0.00,,,0.00,WeatherCatV1.13B119,2013-03-01 14:30:00,
2013-03-01 09:35:00,43.2,32.2,29.68,NNW,337,2.0,5.0,65,0.00,,,0.00,WeatherCatV1.13B119,2013-03-01 14:35:00,
2013-03-01 09:40:00,43.1,31.8,29.68,NNW,330,1.0,7.0,64,0.00,,,0.00,WeatherCatV1.13B119,2013-03-01 14:40:00,
2013-03-01 09:45:00,42.8,31.9,29.68,North,352,3.0,3.0,65,0.00,,,0.00,WeatherCatV1.13B119,2013-03-01 14:45:00,
2013-03-01 09:50:00,42.8,32.2,29.68,West,272,3.0,4.0,66,0.00,,,0.00,WeatherCatV1.13B119,2013-03-01 14:50:00,
2013-03-01 09:55:00,43.1,32.1,29.68,NNE,23,3.0,5.0,65,0.00,,,0.00,WeatherCatV1.13B119,2013-03-01 14:55:00,
2013-03-01 10:00:00,43.2,31.9,29.69,NNW,340,0.0,2.0,64,0.00,,,0.00,WeatherCatV1.13B119,2013-03-01 15:00:00,
2013-03-01 10:05:00,43.1,31.8,29.69,WNW,294,1.0,3.0,64,0.00,,,0.00,WeatherCatV1.13B119,2013-03-01 15:05:00,
2013-03-01 10:10:00,42.9,31.6,29.69,NNW,335,2.0,5.0,64,0.00,,,0.00,WeatherCatV1.13B119,2013-03-01 15:10:00,
2013-03-01 10:15:00,42.6,31.3,29.69,NNW,329,2.0,4.0,64,0.00,,,0.00,WeatherCatV1.13B119,2013-03-01 15:15:00,
2013-03-01 10:20:00,42.2,31.3,29.69,NNW,329,4.0,4.0,65,0.00,,,0.00,WeatherCatV1.13B119,2013-03-01 15:20:00,
2013-03-01 10:25:00,41.9,31.0,29.69,North,358,2.0,7.0,65,0.00,,,0.00,WeatherCatV1.13B119,2013-03-01 15:25:00,
2013-03-01 10:30:00,41.5,30.6,29.69,NNW,348,2.0,7.0,65,0.00,,,0.00,WeatherCatV1.13B119,2013-03-01 15:30:00,
2013-03-01 10:35:00,41.4,30.9,29.69,North,7,2.0,3.0,66,0.00,,,0.00,WeatherCatV1.13B119,2013-03-01 15:35:00,
2013-03-01 10:40:00,41.4,31.3,29.69,NE,34,1.0,2.0,67,0.00,,,0.00,WeatherCatV1.13B119,2013-03-01 15:40:00,
2013-03-01 10:45:00,41.4,30.9,29.69,North,350,1.0,3.0,66,0.00,,,0.00,WeatherCatV1.13B119,2013-03-01 15:45:00,
2013-03-01 10:50:00,41.3,30.4,29.69,North,350,2.0,7.0,65,0.00,,,0.00,WeatherCatV1.13B119,2013-03-01 15:50:00,
2013-03-01 10:55:00,41.2,30.7,29.69,NNW,348,3.0,4.0,66,0.00,,,0.00,WeatherCatV1.13B119,2013-03-01 15:55:00,
2013-03-01 11:00:00,41.1,30.6,29.69,NNW,339,0.0,5.0,66,0.00,,,0.00,WeatherCatV1.13B119,2013-03-01 16:00:00,
2013-03-01 11:05:00,41.2,30.7,29.70,NW,304,2.0,3.0,66,0.00,,,0.00,WeatherCatV1.13B119,2013-03-01 16:05:00,
2013-03-01 11:10:00,41.3,30.8,29.70,NNW,346,2.0,4.0,66,0.00,,,0.00,WeatherCatV1.13B119,2013-03-01 16:10:00,
2013-03-01 11:15:00,41.4,30.9,29.70,NNW,348,1.0,3.0,66,0.00,,,0.00,WeatherCatV1.13B119,2013-03-01 16:15:00,
2013-03-01 11:20:00,41.5,31.0,29.70,NNW,348,3.0,4.0,66,0.00,,,0.00,WeatherCatV1.13B119,2013-03-01 16:20:00,
2013-03-01 11:25:00,41.7,31.2,29.69,NNE,14,1.0,1.0,66,0.00,,,0.00,WeatherCatV1.13B119,2013-03-01 16:25:00,
2013-03-01 11:30:00,42.0,31.5,29.70,NNE,14,1.0,1.0,66,0.00,,,0.00,WeatherCatV1.13B119,2013-03-01 16:30:00,
2013-03-01 11:35:00,42.2,31.3,29.70,NNE,13,2.0,3.0,65,0.00,,,0.00,WeatherCatV1.13B119,2013-03-01 16:35:00,
2013-03-01 11:40:00,42.3,30.6,29.70,North,355,1.0,3.0,63,0.00,,,0.00,WeatherCatV1.13B119,2013-03-01 16:40:00,
2013-03-01 11:45:00,42.2,30.5,29.70,NNE,28,2.0,3.0,63,0.00,,,0.00,WeatherCatV1.13B119,2013-03-01 16:45:00,
2013-03-01 11:50:00,42.2,30.9,29.69,NNE,28,0.0,2.0,64,0.00,,,0.00,WeatherCatV1.13B119,2013-03-01 16:50:00,
2013-03-01 11:55:00,42.5,30.8,29.69,NNE,26,1.0,3.0,63,0.00,,,0.00,WeatherCatV1.13B119,2013-03-01 16:55:00,
2013-03-01 12:00:00,42.6,30.9,29.69,NNE,25,1.0,2.0,63,0.00,,,0.00,WeatherCatV1.13B119,2013-03-01 17:00:00,
2013-03-01 12:05:00,42.8,31.1,29.69,NNE,25,1.0,2.0,63,0.00,,,0.00,WeatherCatV1.13B119,2013-03-01 17:05:00,
2013-03-01 12:10:00,43.0,30.5,29.69,North,349,2.0,3.0,61,0.00,,,0.00,WeatherCatV1.13B119,2013-03-01 17:10:00,
2013-03-01 12:15:00,43.1,30.6,29.69,NNW,340,1.0,2.0,61,0.00,,,0.00,WeatherCatV1.13B119,2013-03-01 17:15:00,
2013-03-01 12:20:00,43.2,30.7,29.69,NNE,23,1.0,5.0,61,0.00,,,0.00,WeatherCatV1.13B119,2013-03-01 17:20:00,
2013-03-01 12:25:00,43.2,30.3,29.69,North,354,0.0,2.0,60,0.00,,,0.00,WeatherCatV1.13B119,2013-03-01 17:25:00,
2013-03-01 12:30:00,43.2,29.9,29.69,NNW,339,1.0,3.0,59,0.00,,,0.00,WeatherCatV1.13B119,2013-03-01 17:30:00,
2013-03-01 12:35:00,43.2,30.3,29.68,North,353,2.0,2.0,60,0.00,,,0.00,WeatherCatV1.13B119,2013-03-01 17:35:00,
2013-03-01 12:40:00,43.4,30.5,29.68,North,355,3.0,3.0,60,0.00,,,0.00,WeatherCatV1.13B119,2013-03-01 17:40:00,
2013-03-01 12:45:00,43.5,30.1,29.68,NNW,344,0.0,2.0,59,0.00,,,0.00,WeatherCatV1.13B119,2013-03-01 17:45:00,
2013-03-01 12:50:00,43.6,30.2,29.68,NNE,27,2.0,3.0,59,0.00,,,0.00,WeatherCatV1.13B119,2013-03-01 17:50:00,
2013-03-01 12:55:00,43.9,30.5,29.68,WNW,294,2.0,3.0,59,0.00,,,0.00,WeatherCatV1.13B119,2013-03-01 17:55:00,
2013-03-01 13:00:00,44.1,30.3,29.68,NNW,348,1.0,1.0,58,0.00,,,0.00,WeatherCatV1.13B119,2013-03-01 18:00:00,
2013-03-01 13:05:00,44.2,29.9,29.68,NNW,331,3.0,5.0,57,0.00,,,0.00,WeatherCatV1.13B119,2013-03-01 18:05:00,
2013-03-01 13:10:00,44.2,29.9,29.67,NNW,331,1.0,3.0,57,0.00,,,0.00,WeatherCatV1.13B119,2013-03-01 18:10:00,
2013-03-01 13:15:00,44.3,29.2,29.67,NNW,346,1.0,5.0,55,0.00,,,0.00,WeatherCatV1.13B119,2013-03-01 18:15:00,
2013-03-01 13:20:00,44.4,29.3,29.67,WNW,294,3.0,3.0,55,0.00,,,0.00,WeatherCatV1.13B119,2013-03-01 18:20:00,
2013-03-01 13:25:00,44.4,28.8,29.67,North,349,2.0,8.0,54,0.00,,,0.00,WeatherCatV1.13B119,2013-03-01 18:25:00,
2013-03-01 13:30:00,44.2,28.2,29.68,North,5,1.0,4.0,53,0.00,,,0.00,WeatherCatV1.13B119,2013-03-01 18:30:00,
2013-03-01 13:35:00,44.3,29.2,29.68,North,353,1.0,3.0,55,0.00,,,0.00,WeatherCatV1.13B119,2013-03-01 18:35:00,
2013-03-01 13:40:00,44.3,29.2,29.67,NW,307,3.0,5.0,55,0.00,,,0.00,WeatherCatV1.13B119,2013-03-01 18:40:00,
2013-03-01 13:45:00,44.3,28.7,29.67,WSW,256,3.0,4.0,54,0.00,,,0.00,WeatherCatV1.13B119,2013-03-01 18:45:00,
2013-03-01 13:50:00,44.0,29.3,29.68,North,352,1.0,4.0,56,0.00,,,0.00,WeatherCatV1.13B119,2013-03-01 18:50:00,
2013-03-01 13:55:00,43.8,29.6,29.68,North,7,2.0,5.0,57,0.00,,,0.00,WeatherCatV1.13B119,2013-03-01 18:55:00,
2013-03-01 14:00:00,43.5,29.3,29.68,West,265,1.0,4.0,57,0.00,,,0.00,WeatherCatV1.13B119,2013-03-01 19:00:00,
2013-03-01 14:05:00,43.3,29.5,29.68,WNW,284,2.0,3.0,58,0.00,,,0.00,WeatherCatV1.13B119,2013-03-01 19:05:00,
2013-03-01 14:10:00,43.1,29.8,29.68,North,6,1.0,2.0,59,0.00,,,0.00,WeatherCatV1.13B119,2013-03-01 19:10:00,
2013-03-01 14:15:00,42.9,29.6,29.68,North,356,2.0,6.0,59,0.00,,,0.00,WeatherCatV1.13B119,2013-03-01 19:15:00,
2013-03-01 14:20:00,42.8,29.5,29.68,North,359,1.0,2.0,59,0.00,,,0.00,WeatherCatV1.13B119,2013-03-01 19:20:00,
2013-03-01 14:25:00,42.9,29.6,29.68,NNW,339,2.0,5.0,59,0.00,,,0.00,WeatherCatV1.13B119,2013-03-01 19:25:00,
2013-03-01 14:31:00,42.8,29.1,29.68,NW,317,1.0,6.0,58,0.00,,,0.00,WeatherCatV1.13B119,2013-03-01 19:31:00,
2013-03-01 14:36:00,42.8,29.5,29.68,NNW,346,2.0,8.0,59,0.00,,,0.00,WeatherCatV1.13B119,2013-03-01 19:36:00,
2013-03-01 14:41:00,42.8,29.5,29.68,NNW,338,0.0,2.0,59,0.00,,,0.00,WeatherCatV1.13B119,2013-03-01 19:41:00,
2013-03-01 14:46:00,42.8,29.5,29.68,NW,320,1.0,3.0,59,0.00,,,0.00,WeatherCatV1.13B119,2013-03-01 19:46:00,
2013-03-01 14:51:00,42.9,29.6,29.68,NNW,348,1.0,3.0,59,0.00,,,0.00,WeatherCatV1.13B119,2013-03-01 19:51:00,
2013-03-01 14:56:00,42.9,29.6,29.68,North,3,3.0,4.0,59,0.00,,,0.00,WeatherCatV1.13B119,2013-03-01 19:56:00,
2013-03-01 15:01:00,42.9,29.2,29.68,NNW,341,3.0,4.0,58,0.00,,,0.00,WeatherCatV1.13B119,2013-03-01 20:01:00,
2013-03-01 15:06:00,43.0,29.2,29.69,WNW,284,1.0,4.0,58,0.00,,,0.00,WeatherCatV1.13B119,2013-03-01 20:06:00,
2013-03-01 15:11:00,43.0,29.2,29.68,North,352,1.0,7.0,58,0.00,,,0.00,WeatherCatV1.13B119,2013-03-01 20:11:00,
2013-03-01 15:16:00,43.1,29.8,29.68,NNW,331,1.0,1.0,59,0.00,,,0.00,WeatherCatV1.13B119,2013-03-01 20:16:00,
2013-03-01 15:21:00,43.1,29.3,29.68,NW,324,0.0,2.0,58,0.00,,,0.00,WeatherCatV1.13B119,2013-03-01 20:21:00,
2013-03-01 15:26:00,43.0,29.2,29.68,North,355,1.0,8.0,58,0.00,,,0.00,WeatherCatV1.13B119,2013-03-01 20:26:00,
2013-03-01 15:31:00,42.9,29.2,29.68,NNW,334,2.0,3.0,58,0.00,,,0.00,WeatherCatV1.13B119,2013-03-01 20:31:00,
2013-03-01 15:36:00,42.9,29.2,29.68,North,355,1.0,3.0,58,0.00,,,0.00,WeatherCatV1.13B119,2013-03-01 20:36:00,
2013-03-01 15:41:00,42.9,29.2,29.68,North,356,1.0,2.0,58,0.00,,,0.00,WeatherCatV1.13B119,2013-03-01 20:41:00,
2013-03-01 15:46:00,43.0,29.2,29.68,NNW,344,2.0,5.0,58,0.00,,,0.00,WeatherCatV1.13B119,2013-03-01 20:46:00,
2013-03-01 15:51:00,43.0,28.8,29.68,NNW,336,1.0,5.0,57,0.00,,,0.00,WeatherCatV1.13B119,2013-03-01 20:51:00,
2013-03-01 15:56:00,43.0,28.8,29.68,NW,323,1.0,3.0,57,0.00,,,0.00,WeatherCatV1.13B119,2013-03-01 20:56:00,
2013-03-01 16:01:00,43.0,28.8,29.68,North,353,1.0,3.0,57,0.00,,,0.00,WeatherCatV1.13B119,2013-03-01 21:01:00,
2013-03-01 16:06:00,43.0,28.8,29.69,NNW,343,1.0,4.0,57,0.00,,,0.00,WeatherCatV1.13B119,2013-03-01 21:06:00,
2013-03-01 16:11:00,43.0,28.8,29.69,West,269,3.0,3.0,57,0.00,,,0.00,WeatherCatV1.13B119,2013-03-01 21:11:00,
2013-03-01 16:16:00,43.0,28.4,29.69,NW,319,2.0,7.0,56,0.00,,,0.00,WeatherCatV1.13B119,2013-03-01 21:16:00,
2013-03-01 16:21:00,43.0,28.4,29.69,NW,308,3.0,5.0,56,0.00,,,0.00,WeatherCatV1.13B119,2013-03-01 21:21:00,
2013-03-01 16:26:00,42.9,28.3,29.69,NW,304,4.0,6.0,56,0.00,,,0.00,WeatherCatV1.13B119,2013-03-01 21:26:00,
2013-03-01 16:31:00,42.9,28.3,29.69,NNW,339,3.0,5.0,56,0.00,,,0.00,WeatherCatV1.13B119,2013-03-01 21:31:00,
2013-03-01 16:36:00,42.8,28.6,29.69,NNW,339,2.0,2.0,57,0.00,,,0.00,WeatherCatV1.13B119,2013-03-01 21:36:00,
2013-03-01 16:41:00,42.7,29.0,29.69,NNE,27,3.0,6.0,58,0.00,,,0.00,WeatherCatV1.13B119,2013-03-01 21:41:00,
2013-03-01 16:46:00,42.6,29.3,29.70,West,268,1.0,4.0,59,0.00,,,0.00,WeatherCatV1.13B119,2013-03-01 21:46:00,
2013-03-01 16:51:00,42.5,29.6,29.70,North,8,3.0,3.0,60,0.00,,,0.00,WeatherCatV1.13B119,2013-03-01 21:51:00,
2013-03-01 16:56:00,42.4,29.5,29.70,West,279,2.0,4.0,60,0.00,,,0.00,WeatherCatV1.13B119,2013-03-01 21:56:00,
2013-03-01 17:01:00,42.3,29.8,29.70,NNW,341,1.0,2.0,61,0.00,,,0.00,WeatherCatV1.13B119,2013-03-01 22:01:00,
2013-03-01 17:06:00,42.1,29.6,29.70,West,267,3.0,3.0,61,0.00,,,0.00,WeatherCatV1.13B119,2013-03-01 22:06:00,
2013-03-01 17:11:00,42.0,29.5,29.70,West,269,1.0,3.0,61,0.00,,,0.00,WeatherCatV1.13B119,2013-03-01 22:11:00,
2013-03-01 17:16:00,41.9,29.4,29.71,WSW,244,3.0,4.0,61,0.00,,,0.00,WeatherCatV1.13B119,2013-03-01 22:16:00,
2013-03-01 17:21:00,41.8,29.7,29.71,NE,50,0.0,4.0,62,0.00,,,0.00,WeatherCatV1.13B119,2013-03-01 22:21:00,
2013-03-01 17:26:00,41.7,29.3,29.71,North,350,3.0,4.0,61,0.00,,,0.00,WeatherCatV1.13B119,2013-03-01 22:26:00,
2013-03-01 17:31:00,41.7,29.7,29.71,West,265,0.0,4.0,62,0.00,,,0.00,WeatherCatV1.13B119,2013-03-01 22:31:00,
2013-03-01 17:36:00,41.6,29.2,29.71,West,271,2.0,4.0,61,0.00,,,0.00,WeatherCatV1.13B119,2013-03-01 22:36:00,
2013-03-01 17:41:00,41.6,29.6,29.72,NNW,344,2.0,2.0,62,0.00,,,0.00,WeatherCatV1.13B119,2013-03-01 22:41:00,
2013-03-01 17:46:00,41.5,29.5,29.72,NW,304,0.0,1.0,62,0.00,,,0.00,WeatherCatV1.13B119,2013-03-01 22:46:00,
2013-03-01 17:51:00,41.5,29.5,29.72,North,352,0.0,3.0,62,0.00,,,0.00,WeatherCatV1.13B119,2013-03-01 22:51:00,
2013-03-01 17:56:00,41.4,29.8,29.72,WNW,294,1.0,4.0,63,0.00,,,0.00,WeatherCatV1.13B119,2013-03-01 22:56:00,
2013-03-01 18:01:00,41.3,30.4,29.72,NW,313,3.0,5.0,65,0.00,,,0.00,WeatherCatV1.13B119,2013-03-01 23:01:00,
2013-03-01 18:06:00,41.1,30.6,29.73,NNW,346,2.0,4.0,66,0.00,,,0.00,WeatherCatV1.13B119,2013-03-01 23:06:00,
2013-03-01 18:11:00,40.8,30.3,29.73,WNW,301,3.0,3.0,66,0.00,,,0.00,WeatherCatV1.13B119,2013-03-01 23:11:00,
2013-03-01 18:16:00,40.6,30.5,29.73,NW,310,2.0,3.0,67,0.00,,,0.00,WeatherCatV1.13B119,2013-03-01 23:16:00,
2013-03-01 18:21:00,40.4,30.3,29.73,NNW,346,3.0,7.0,67,0.00,,,0.00,WeatherCatV1.13B119,2013-03-01 23:21:00,
2013-03-01 18:26:00,40.3,30.2,29.74,West,266,1.0,7.0,67,0.00,,,0.00,WeatherCatV1.13B119,2013-03-01 23:26:00,
2013-03-01 18:31:00,40.2,30.5,29.74,North,354,0.0,2.0,68,0.00,,,0.00,WeatherCatV1.13B119,2013-03-01 23:31:00,
2013-03-01 18:36:00,40.1,30.4,29.74,West,275,2.0,8.0,68,0.00,,,0.00,WeatherCatV1.13B119,2013-03-01 23:36:00,
2013-03-01 18:41:00,40.0,30.3,29.74,West,272,1.0,5.0,68,0.00,,,0.00,WeatherCatV1.13B119,2013-03-01 23:41:00,
2013-03-01 18:46:00,40.0,30.3,29.74,NNW,335,2.0,4.0,68,0.00,,,0.00,WeatherCatV1.13B119,2013-03-01 23:46:00,
2013-03-01 18:51:00,39.9,30.2,29.74,NNE,13,2.0,2.0,68,0.00,,,0.00,WeatherCatV1.13B119,2013-03-01 23:51:00,
2013-03-01 18:56:00,39.9,30.2,29.74,North,358,0.0,3.0,68,0.00,,,0.00,WeatherCatV1.13B119,2013-03-01 23:56:00,
2013-03-01 19:01:00,39.9,30.2,29.74,NNW,347,3.0,4.0,68,0.00,,,0.00,WeatherCatV1.13B119,2013-03-02 00:01:00,
2013-03-01 19:06:00,39.8,30.1,29.74,NNE,18,1.0,2.0,68,0.00,,,0.00,WeatherCatV1.13B119,2013-03-02 00:06:00,
2013-03-01 19:11:00,39.7,30.0,29.75,NNE,18,1.0,1.0,68,0.00,,,0.00,WeatherCatV1.13B119,2013-03-02 00:11:00,
2013-03-01 19:16:00,39.7,29.7,29.75,NNW,335,1.0,9.0,67,0.00,,,0.00,WeatherCatV1.13B119,2013-03-02 00:16:00,
2013-03-01 19:21:00,39.6,29.6,29.75,North,355,2.0,5.0,67,0.00,,,0.00,WeatherCatV1.13B119,2013-03-02 00:21:00,
2013-03-01 19:26:00,39.6,29.6,29.75,NW,313,1.0,1.0,67,0.00,,,0.00,WeatherCatV1.13B119,2013-03-02 00:26:00,
2013-03-01 19:31:00,39.6,29.9,29.75,WNW,300,1.0,2.0,68,0.00,,,0.00,WeatherCatV1.13B119,2013-03-02 00:31:00,
2013-03-01 19:36:00,39.5,29.5,29.75,NNW,342,1.0,6.0,67,0.00,,,0.00,WeatherCatV1.13B119,2013-03-02 00:36:00,
2013-03-01 19:41:00,39.5,29.5,29.75,North,358,0.0,2.0,67,0.00,,,0.00,WeatherCatV1.13B119,2013-03-02 00:41:00,
2013-03-01 19:46:00,39.4,29.4,29.75,North,350,3.0,3.0,67,0.00,,,0.00,WeatherCatV1.13B119,2013-03-02 00:46:00,
2013-03-01 19:51:00,39.4,29.4,29.75,NW,320,1.0,2.0,67,0.00,,,0.00,WeatherCatV1.13B119,2013-03-02 00:51:00,
2013-03-01 19:56:00,39.3,29.3,29.75,North,5,1.0,3.0,67,0.00,,,0.00,WeatherCatV1.13B119,2013-03-02 00:56:00,
2013-03-01 20:01:00,39.3,29.3,29.75,North,353,1.0,1.0,67,0.00,,,0.00,WeatherCatV1.13B119,2013-03-02 01:01:00,
2013-03-01 20:06:00,39.3,29.3,29.75,North,350,2.0,5.0,67,0.00,,,0.00,WeatherCatV1.13B119,2013-03-02 01:06:00,
2013-03-01 20:11:00,39.2,29.2,29.75,North,352,0.0,1.0,67,0.00,,,0.00,WeatherCatV1.13B119,2013-03-02 01:11:00,
2013-03-01 20:16:00,39.2,29.2,29.75,NNW,343,1.0,4.0,67,0.00,,,0.00,WeatherCatV1.13B119,2013-03-02 01:16:00,
2013-03-01 20:21:00,39.1,29.1,29.75,West,268,3.0,9.0,67,0.00,,,0.00,WeatherCatV1.13B119,2013-03-02 01:21:00,
2013-03-01 20:26:00,39.1,29.1,29.76,North,350,1.0,5.0,67,0.00,,,0.00,WeatherCatV1.13B119,2013-03-02 01:26:00,
2013-03-01 20:31:00,39.0,29.0,29.76,North,4,1.0,3.0,67,0.00,,,0.00,WeatherCatV1.13B119,2013-03-02 01:31:00,
2013-03-01 20:36:00,38.9,28.9,29.76,NW,311,2.0,5.0,67,0.00,,,0.00,WeatherCatV1.13B119,2013-03-02 01:36:00,
2013-03-01 20:41:00,38.8,28.8,29.76,WNW,289,3.0,5.0,67,0.00,,,0.00,WeatherCatV1.13B119,2013-03-02 01:41:00,
2013-03-01 20:46:00,38.8,28.8,29.76,NNE,30,1.0,4.0,67,0.00,,,0.00,WeatherCatV1.13B119,2013-03-02 01:46:00,
2013-03-01 20:51:00,38.7,29.1,29.76,North,11,0.0,3.0,68,0.00,,,0.00,WeatherCatV1.13B119,2013-03-02 01:51:00,
2013-03-01 20:56:00,38.7,29.1,29.76,NNW,348,2.0,5.0,68,0.00,,,0.00,WeatherCatV1.13B119,2013-03-02 01:56:00,
2013-03-01 21:01:00,38.6,28.6,29.76,North,5,0.0,3.0,67,0.00,,,0.00,WeatherCatV1.13B119,2013-03-02 02:01:00,
2013-03-01 21:06:00,38.5,28.5,29.76,North,349,2.0,4.0,67,0.00,,,0.00,WeatherCatV1.13B119,2013-03-02 02:06:00,
2013-03-01 21:11:00,38.5,28.9,29.76,NNE,17,0.0,2.0,68,0.00,,,0.00,WeatherCatV1.13B119,2013-03-02 02:11:00,
2013-03-01 21:16:00,38.4,28.8,29.77,North,356,1.0,5.0,68,0.00,,,0.00,WeatherCatV1.13B119,2013-03-02 02:16:00,
2013-03-01 21:21:00,38.4,28.8,29.77,North,352,3.0,4.0,68,0.00,,,0.00,WeatherCatV1.13B119,2013-03-02 02:21:00,
2013-03-01 21:26:00,38.3,28.3,29.77,North,4,1.0,2.0,67,0.00,,,0.00,WeatherCatV1.13B119,2013-03-02 02:26:00,
2013-03-01 21:31:00,38.2,28.6,29.77,NNW,342,2.0,5.0,68,0.00,,,0.00,WeatherCatV1.13B119,2013-03-02 02:31:00,
2013-03-01 21:36:00,38.2,28.2,29.76,NNW,338,1.0,7.0,67,0.00,,,0.00,WeatherCatV1.13B119,2013-03-02 02:36:00,
2013-03-01 21:41:00,38.1,28.1,29.76,WNW,302,4.0,7.0,67,0.00,,,0.00,WeatherCatV1.13B119,2013-03-02 02:41:00,
2013-03-01 21:46:00,38.0,28.0,29.77,North,357,2.0,2.0,67,0.00,,,0.00,WeatherCatV1.13B119,2013-03-02 02:46:00,
2013-03-01 21:51:00,38.0,28.4,29.76,NNW,337,3.0,5.0,68,0.00,,,0.00,WeatherCatV1.13B119,2013-03-02 02:51:00,
2013-03-01 21:56:00,37.9,27.9,29.77,NNW,348,1.0,4.0,67,0.00,,,0.00,WeatherCatV1.13B119,2013-03-02 02:56:00,
2013-03-01 22:01:00,37.9,27.9,29.77,NNW,348,1.0,1.0,67,0.00,,,0.00,WeatherCatV1.13B119,2013-03-02 03:01:00,
2013-03-01 22:06:00,37.8,27.8,29.77,North,351,1.0,3.0,67,0.00,,,0.00,WeatherCatV1.13B119,2013-03-02 03:06:00,
2013-03-01 22:11:00,37.8,27.8,29.77,North,351,0.0,1.0,67,0.00,,,0.00,WeatherCatV1.13B119,2013-03-02 03:11:00,
2013-03-01 22:16:00,37.7,28.1,29.77,North,357,0.0,6.0,68,0.00,,,0.00,WeatherCatV1.13B119,2013-03-02 03:16:00,
2013-03-01 22:21:00,37.6,27.6,29.77,North,8,3.0,9.0,67,0.00,,,0.00,WeatherCatV1.13B119,2013-03-02 03:21:00,
2013-03-01 22:26:00,37.5,27.6,29.77,North,356,1.0,4.0,67,0.00,,,0.00,WeatherCatV1.13B119,2013-03-02 03:26:00,
2013-03-01 22:31:00,37.5,27.9,29.77,NNE,21,0.0,3.0,68,0.00,,,0.00,WeatherCatV1.13B119,2013-03-02 03:31:00,
2013-03-01 22:36:00,37.4,27.8,29.77,North,3,0.0,7.0,68,0.00,,,0.00,WeatherCatV1.13B119,2013-03-02 03:36:00,
2013-03-01 22:41:00,37.3,27.7,29.77,North,353,1.0,2.0,68,0.00,,,0.00,WeatherCatV1.13B119,2013-03-02 03:41:00,
2013-03-01 22:46:00,37.3,27.7,29.77,NNE,25,1.0,1.0,68,0.00,,,0.00,WeatherCatV1.13B119,2013-03-02 03:46:00,
2013-03-01 22:51:00,37.2,27.6,29.77,North,354,1.0,4.0,68,0.00,,,0.00,WeatherCatV1.13B119,2013-03-02 03:51:00,
2013-03-01 22:56:00,37.1,27.5,29.78,NNE,19,5.0,7.0,68,0.00,,,0.00,WeatherCatV1.13B119,2013-03-02 03:56:00,
2013-03-01 23:01:00,37.1,27.5,29.78,North,5,0.0,3.0,68,0.00,,,0.00,WeatherCatV1.13B119,2013-03-02 04:01:00,
2013-03-01 23:06:00,37.0,27.4,29.78,NNE,28,1.0,2.0,68,0.00,,,0.00,WeatherCatV1.13B119,2013-03-02 04:06:00,
2013-03-01 23:11:00,37.0,27.4,29.77,North,6,1.0,5.0,68,0.00,,,0.00,WeatherCatV1.13B119,2013-03-02 04:11:00,
2013-03-01 23:16:00,36.9,27.3,29.77,North,359,4.0,4.0,68,0.00,,,0.00,WeatherCatV1.13B119,2013-03-02 04:16:00,
2013-03-01 23:21:00,36.9,27.0,29.77,WNW,294,2.0,3.0,67,0.00,,,0.00,WeatherCatV1.13B119,2013-03-02 04:21:00,
2013-03-01 23:26:00,36.9,27.0,29.77,North,2,1.0,3.0,67,0.00,,,0.00,WeatherCatV1.13B119,2013-03-02 04:26:00,
2013-03-01 23:31:00,36.8,26.9,29.77,NNW,347,0.0,4.0,67,0.00,,,0.00,WeatherCatV1.13B119,2013-03-02 04:31:00,
2013-03-01 23:36:00,36.7,26.8,29.77,North,1,1.0,3.0,67,0.00,,,0.00,WeatherCatV1.13B119,2013-03-02 04:36:00,
2013-03-01 23:41:00,36.7,26.8,29.77,North,1,0.0,2.0,67,0.00,,,0.00,WeatherCatV1.13B119,2013-03-02 04:41:00,
2013-03-01 23:46:00,36.6,26.7,29.77,North,350,1.0,3.0,67,0.00,,,0.00,WeatherCatV1.13B119,2013-03-02 04:46:00,
2013-03-01 23:51:00,36.5,26.6,29.77,North,354,1.0,2.0,67,0.00,,,0.00,WeatherCatV1.13B119,2013-03-02 04:51:00,
2013-03-01 23:56:00,36.5,26.6,29.77,North,354,1.0,3.0,67,0.00,,,0.00,WeatherCatV1.13B119,2013-03-02 04:56:00,